Weather History for Tampa Knight Airport, FL

Change the Weather History Date:

Wednesday, June 18, 2014

  Actual Average (KTPA) Record (KTPA)
Temperature  
Mean Temperature 83 °F 82 °F  
Max Temperature 93 °F 90 °F 96 °F (1998)
Min Temperature 73 °F 75 °F 65 °F (1933)
Degree Days  
Heating Degree Days 0 0  
Month to date heating degree days 0  
Since 1 June heating degree days 0  
Since 1 July heating degree days 538  
Cooling Degree Days 18 17  
Month to date cooling degree days 303  
Year to date cooling degree days 1180  
Since 1 June cooling degree days 303  
Growing Degree Days 33 (Base 50)    
Moisture  
Dew Point 70 °F    
Average Humidity 71    
Maximum Humidity 88    
Minimum Humidity 44    
Precipitation  
Precipitation 0.19 in 0.25 in 3.21 in (1972)
Month to date precipitation 3.44  
Year to date precipitation 15.64  
Sea Level Pressure  
Sea Level Pressure 30.11 in    
Wind  
Wind Speed 7 mph (East)    
Max Wind Speed 20 mph    
Max Gust Speed 34 mph    
Visibility 10 miles    
Events Rain    
T = Trace of Precipitation, MM = Missing Value Source: NWS Daily Summary

Daily Weather History Graph

Daily Weather History Graph

Search for Another Location

Airport:

Trip Planner

Search our weather history database for the weather conditions in past years. The results will help you decide how hot, cold, wet, or windy it might be!

Date:

Astronomy

Jun. 18, 2014 Rise Set
Actual Time 6:33 AM EDT 8:28 PM EDT
Civil Twilight 6:06 AM EDT 8:55 PM EDT
Nautical Twilight 5:34 AM EDT 9:27 PM EDT
Astronomical Twilight 5:00 AM EDT 10:01 PM EDT
Moon 12:22 AM EDT (6/18) 12:26 PM EDT (6/18)
Length of Visible Light 14h 48m
Length of Day
13h 54m
Waning Gibbous, 63% of the Moon is Illuminated
Jun 18
Waning Gibbous
Jun 19
Last Quarter
Jun 27
New
Jul 5
First Quarter
Jul 12
Full

Hourly Weather History & Observations

Time (EDT) Temp. Heat Index Dew Point Humidity Pressure Visibility Wind Dir Wind Speed Gust Speed Precip Events Conditions
12:15 AM 80.6 °F 84.6 °F 71.6 °F 74% 30.14 in 10.0 mi SSE 9.2 mph - N/A   Clear
12:35 AM 80.6 °F 84.6 °F 71.6 °F 74% 30.14 in 10.0 mi SSE 9.2 mph - N/A   Clear
12:55 AM 80.6 °F 84.6 °F 71.6 °F 74% 30.14 in 10.0 mi SE 8.1 mph - N/A   Clear
1:15 AM 80.6 °F 83.9 °F 69.8 °F 70% 30.14 in 10.0 mi SSE 8.1 mph - N/A   Clear
1:35 AM 78.8 °F - 69.8 °F 74% 30.13 in 10.0 mi SSE 5.8 mph - N/A   Clear
1:55 AM 78.8 °F - 69.8 °F 74% 30.12 in 10.0 mi SE 6.9 mph - N/A   Clear
2:15 AM 78.8 °F - 69.8 °F 74% 30.12 in 10.0 mi SSE 5.8 mph - N/A   Clear
2:35 AM 78.8 °F - 69.8 °F 74% 30.11 in 10.0 mi SE 5.8 mph - N/A   Clear
2:55 AM 77.0 °F - 69.8 °F 78% 30.10 in 10.0 mi SE 4.6 mph - N/A   Clear
3:15 AM 77.0 °F - 69.8 °F 78% 30.10 in 10.0 mi ESE 4.6 mph - N/A   Clear
3:35 AM 77.0 °F - 69.8 °F 78% 30.09 in 10.0 mi East 3.5 mph - N/A   Clear
3:55 AM 75.2 °F - 69.8 °F 83% 30.09 in 10.0 mi East 4.6 mph - N/A   Clear
4:15 AM 75.2 °F - 69.8 °F 83% 30.09 in 10.0 mi East 3.5 mph - N/A   Clear
4:35 AM 75.2 °F - 69.8 °F 83% 30.09 in 10.0 mi East 3.5 mph - N/A   Clear
4:55 AM 73.4 °F - 69.8 °F 88% 30.09 in 10.0 mi ENE 4.6 mph - N/A   Clear
5:15 AM 73.4 °F - 69.8 °F 88% 30.09 in 10.0 mi ENE 4.6 mph - N/A   Clear
5:35 AM 73.4 °F - 69.8 °F 88% 30.09 in 10.0 mi East 3.5 mph - N/A   Clear
5:55 AM 73.4 °F - 69.8 °F 88% 30.09 in 10.0 mi Calm Calm - N/A   Clear
6:15 AM 73.4 °F - 69.8 °F 88% 30.10 in 10.0 mi Calm Calm - N/A   Clear
6:35 AM 73.4 °F - 69.8 °F 88% 30.10 in 10.0 mi Calm Calm - N/A   Clear
8:35 AM 80.6 °F 84.6 °F 71.6 °F 74% 30.12 in 10.0 mi ENE 5.8 mph - N/A   Unknown
8:55 AM 80.6 °F 84.6 °F 71.6 °F 74% 30.13 in 10.0 mi East 5.8 mph - N/A   Clear
9:15 AM 82.4 °F 88.2 °F 73.4 °F 74% 30.13 in 10.0 mi ENE 4.6 mph - N/A   Clear
9:35 AM 82.4 °F 88.2 °F 73.4 °F 74% 30.13 in 10.0 mi East 5.8 mph - N/A   Clear
9:55 AM 84.2 °F 90.9 °F 73.4 °F 70% 30.14 in 10.0 mi ESE 6.9 mph - N/A   Scattered Clouds
10:15 AM 86.0 °F 91.8 °F 71.6 °F 62% 30.14 in 10.0 mi East 5.8 mph - N/A   Clear
10:35 AM 86.0 °F 91.8 °F 71.6 °F 62% 30.14 in 10.0 mi East 5.8 mph - N/A   Scattered Clouds
10:55 AM 87.8 °F 93.8 °F 71.6 °F 58% 30.14 in 10.0 mi ENE 4.6 mph - N/A   Scattered Clouds
11:15 AM 86.0 °F 91.8 °F 71.6 °F 62% 30.14 in 10.0 mi East 8.1 mph - N/A   Scattered Clouds
11:35 AM 87.8 °F 92.6 °F 69.8 °F 55% 30.14 in 10.0 mi East 5.8 mph - N/A   Scattered Clouds
11:55 AM 87.8 °F 92.6 °F 69.8 °F 55% 30.13 in 10.0 mi Calm Calm - N/A   Scattered Clouds
12:15 PM 87.8 °F 92.6 °F 69.8 °F 55% 30.13 in 10.0 mi East 6.9 mph - N/A   Mostly Cloudy
12:35 PM 87.8 °F 92.6 °F 69.8 °F 55% 30.12 in 10.0 mi ENE 5.8 mph - N/A   Mostly Cloudy
12:55 PM 89.6 °F 94.7 °F 69.8 °F 52% 30.12 in 10.0 mi ENE 9.2 mph - N/A   Mostly Cloudy
1:15 PM 91.4 °F 95.4 °F 68.0 °F 46% 30.11 in 10.0 mi ENE 8.1 mph - N/A   Scattered Clouds
1:35 PM 91.4 °F 96.8 °F 69.8 °F 49% 30.10 in 10.0 mi East 8.1 mph - N/A   Clear
1:55 PM 89.6 °F 93.4 °F 68.0 °F 49% 30.09 in 10.0 mi NE 10.4 mph - N/A   Clear
2:15 PM 91.4 °F 95.4 °F 68.0 °F 46% 30.09 in 10.0 mi East 6.9 mph - N/A   Clear
2:35 PM 91.4 °F 96.8 °F 69.8 °F 49% 30.09 in 10.0 mi NE 5.8 mph - N/A   Clear
2:55 PM 93.2 °F 97.7 °F 68.0 °F 44% 30.09 in 10.0 mi East 6.9 mph - N/A   Clear
3:15 PM 91.4 °F 95.4 °F 68.0 °F 46% 30.08 in 10.0 mi ENE 10.4 mph - N/A   Scattered Clouds
3:35 PM 93.2 °F 97.7 °F 68.0 °F 44% 30.07 in 10.0 mi NE 9.2 mph - N/A   Clear
3:55 PM 93.2 °F 97.7 °F 68.0 °F 44% 30.07 in 10.0 mi ENE 6.9 mph - N/A   Scattered Clouds
4:15 PM 89.6 °F 93.4 °F 68.0 °F 49% 30.07 in 10.0 mi NE 9.2 mph - N/A   Mostly Cloudy
4:35 PM 91.4 °F 96.8 °F 69.8 °F 49% 30.06 in 10.0 mi NE 12.7 mph 18.4 mph N/A   Scattered Clouds
4:55 PM 91.4 °F 95.4 °F 68.0 °F 46% 30.07 in 10.0 mi ENE 12.7 mph 19.6 mph N/A   Mostly Cloudy
5:15 PM 80.6 °F 83.9 °F 69.8 °F 70% 30.10 in 10.0 mi ESE 19.6 mph 34.5 mph N/A   Overcast
5:35 PM 78.8 °F - 71.6 °F 78% 30.11 in 7.0 mi East 18.4 mph 27.6 mph N/A Rain Light Rain
5:55 PM 77.0 °F - 71.6 °F 83% 30.11 in 3.0 mi East 17.3 mph 27.6 mph 0.13 in Rain Rain
6:15 PM 77.0 °F - 71.6 °F 83% 30.11 in 10.0 mi ESE 11.5 mph - 0.04 in Rain Light Rain
6:35 PM 77.0 °F - 71.6 °F 83% 30.10 in 10.0 mi SE 6.9 mph - 0.05 in Rain Light Rain
6:55 PM 77.0 °F - 71.6 °F 83% 30.11 in 10.0 mi SSE 9.2 mph - 0.05 in   Scattered Clouds
7:15 PM 77.0 °F - 71.6 °F 83% 30.10 in 10.0 mi ESE 5.8 mph - N/A   Clear
7:35 PM 77.0 °F - 71.6 °F 83% 30.12 in 10.0 mi East 4.6 mph - N/A   Clear
7:55 PM 77.0 °F - 71.6 °F 83% 30.13 in 10.0 mi ESE 3.5 mph - N/A   Clear
8:15 PM 77.0 °F - 71.6 °F 83% 30.13 in 10.0 mi SE 3.5 mph - N/A Rain Light Rain
8:35 PM 77.0 °F - 71.6 °F 83% 30.12 in 10.0 mi SSE 6.9 mph - 0.01 in Rain Light Rain
8:55 PM 77.0 °F - 71.6 °F 83% 30.11 in 10.0 mi SSE 10.4 mph - 0.01 in Rain Light Rain
9:15 PM 77.0 °F - 71.6 °F 83% 30.10 in 10.0 mi SE 8.1 mph - N/A Rain Light Rain
9:35 PM 77.0 °F - 71.6 °F 83% 30.11 in 10.0 mi East 6.9 mph - N/A   Light Drizzle
9:55 PM 77.0 °F - 71.6 °F 83% 30.11 in 10.0 mi East 4.6 mph - N/A   Scattered Clouds
10:15 PM 77.0 °F - 71.6 °F 83% 30.12 in 10.0 mi East 5.8 mph - N/A   Clear
10:35 PM 77.0 °F - 71.6 °F 83% 30.12 in 10.0 mi East 6.9 mph - N/A   Clear
10:55 PM 77.0 °F - 71.6 °F 83% 30.13 in 10.0 mi Calm Calm - N/A   Clear
11:15 PM 77.0 °F - 71.6 °F 83% 30.14 in 10.0 mi Calm Calm - N/A   Clear
11:35 PM 77.0 °F - 71.6 °F 83% 30.14 in 10.0 mi East 4.6 mph - N/A   Clear
11:55 PM 77.0 °F - 71.6 °F 83% 30.14 in 10.0 mi Calm Calm - N/A   Clear